Terminal Aerodrome Forecast
Issued by NWS

Home | Current Version | Previous Version | Text Only | Print | Product List | Glossary On
Versions: 1 2 3 4 5 6 7 8 9 10 11 12 13 14 15 16 17 18 19 20
000
FTAK31 PAJN 140531
TAFAYA
TAF
PAYA 140531Z 1406/1506 12015G28KT 3SM RA BR BKN012 OVC015
      WS020/15040KT
     FM141400 10010KT 4SM RA BR OVC015
     FM150300 20008KT 5SM -RA BKN015 OVC025
      AMD LTD TO CLD VIS AND WIND=

USA.gov is the U.S. government's official web portal to all federal, state and local government web resources and services.